Погода в Коимбре

Португалия     40°12′19″N   8°25′57″W
темп.,
°C
ветер,
м/с
пор.,
м/с
влажн.,
%
обл.,
%
осадки,
мм/ч
давл.,
гПа
погр.,
м
17 мая, пн
пн1701:00+11ссз1596100 0.0 1021137
04:00+10с1196100 0.0 102135
07:00+10св149596 0.0 1021135
10:00+17ссв235534 0.0 1022698
13:00+21ссз4441100 0.0 10211162
16:00+21сз434181 0.0 10211048
19:00+17ссз3355100 0.0 1021539
22:00+12ссв008299 0.0 102210
18 мая, вт
вт1801:00+11всв008096 0.0 102210
04:00+11юв117663 0.0 102111
07:00+12вюв117511 0.0 102114
10:00+19юз247292 0.0 1022715
13:00+18з368895 0.2 1022592
16:00+21сз555298 0.4 10221150
19:00+17ссз587095 0.4 1023658
22:00+12ссз4108610 0.0 1025352
19 мая, ср
ср1901:00+10с2793100 0.0 1024239
04:00+9св1196100 0.0 102416
07:00+9ссв229193 0.0 102473
10:00+17с23556 0.0 1025593
13:00+23ссз3436100 0.0 10231186
16:00+22сз554246 0.0 1023839
19:00+18ссз485712 0.0 1023451
22:00+12ссз138489 0.0 102573
20 мая, чт
чт2001:00+11св119199 0.0 102410
04:00+11всв118420 0.0 102213
07:00+12всв227091 0.0 102332
10:00+21св354488 0.0 1022520
13:00+28ссв223134 0.0 10211113
16:00+26сз654181 0.0 1020628
19:00+20сз3657100 0.0 1020348
22:00+13сз1375100 0.0 102169
21 мая, пт
пт2101:00+12ссз1380100 0.0 102072
04:00+11ссз118893 0.0 101918
07:00+12сз1187100 0.0 102022
10:00+19ссз366397 0.0 1020688
13:00+23сз45473 0.0 10191063
16:00+21сз66550 0.0 10191040
19:00+18ссз577225 0.0 1019788
22:00+12ссз39870 0.0 1021423